N1CTF-6 Weather Reports


Display with metric or nautical units.
time (UTC)temp
F
wind
direction
speed
MPH
gust
MPH
rain 1hr
in
rain 24hr
in
rain mn
in
humidity
%
barometer
mb
20260508145439 53 209 0.0 2.0 0.00 0.00 0.00 55 1013.8
20260508144439 53 219 2.0 3.0 0.00 0.00 0.00 56 1013.7
20260508143440 52 184 1.0 2.0 0.00 0.00 0.00 57 1014.0
20260508142440 52 194 0.0 2.0 0.00 0.00 0.00 57 1013.9
20260508141439 53 190 1.0 4.0 0.00 0.00 0.00 56 1014.0
20260508140439 53 71 2.0 3.0 0.00 0.00 0.00 56 1014.0
20260508135439 52 208 2.0 3.0 0.00 0.00 0.00 56 1013.9
20260508134439 52 34 3.0 5.0 0.00 0.00 0.00 55 1014.0
20260508133439 52 207 3.0 4.0 0.00 0.00 0.00 55 1013.8
20260508132439 52 139 3.0 3.0 0.00 0.00 0.00 55 1013.8
20260508131439 52 178 3.0 4.0 0.00 0.00 0.00 56 1013.9
20260508130439 52 191 0.0 0.0 0.00 0.00 0.00 56 1013.9
20260508125439 51 60 3.0 4.0 0.00 0.00 0.00 57 1014.1
20260508124439 51 224 2.0 5.0 0.00 0.00 0.00 56 1013.7
20260508123439 50 235 4.0 7.0 0.00 0.00 0.00 58 1013.7
20260508122444 50 296 3.0 5.0 0.00 0.00 0.00 57 1013.7
20260508121439 50 148 1.0 4.0 0.00 0.00 0.00 58 1013.8
20260508120439 50 177 2.0 4.0 0.00 0.00 0.00 59 1013.9
20260508115439 49 172 4.0 5.0 0.00 0.00 0.00 60 1013.9
20260508114439 48 131 2.0 4.0 0.00 0.00 0.00 62 1013.9
20260508113439 48 110 3.0 3.0 0.00 0.00 0.00 63 1013.9
20260508112439 47 81 2.0 3.0 0.00 0.00 0.00 65 1013.6
20260508111439 46 114 2.0 3.0 0.00 0.00 0.00 66 1013.8
20260508110439 45 249 3.0 4.0 0.00 0.00 0.00 69 1013.7
20260508105439 44 118 2.0 3.0 0.00 0.00 0.00 70 1013.8
20260508104439 43 87 2.0 2.0 0.00 0.00 0.00 75 1013.9
20260508103439 42 105 3.0 3.0 0.00 0.00 0.00 77 1013.9
20260508102439 42 95 2.0 3.0 0.00 0.00 0.00 78 1013.8
20260508101439 42 68 2.0 2.0 0.00 0.00 0.00 77 1013.8
20260508100439 42 57 2.0 2.0 0.00 0.00 0.00 76 1013.7
20260508095439 42 114 2.0 2.0 0.00 0.00 0.00 76 1013.7
20260508094439 42 87 2.0 2.0 0.00 0.00 0.00 76 1013.5
20260508093439 42 341 2.0 5.0 0.00 0.00 0.00 78 1013.6
20260508092439 42 95 1.0 2.0 0.00 0.00 0.00 77 1013.8
20260508091439 42 146 2.0 2.0 0.00 0.00 0.00 78 1013.9
20260508090439 42 140 1.0 3.0 0.00 0.00 0.00 79 1013.9
20260508085439 42 67 0.0 2.0 0.00 0.00 0.00 79 1014.0
20260508084439 42 31 3.0 4.0 0.00 0.00 0.00 80 1013.8
20260508083439 42 46 2.0 3.0 0.00 0.00 0.00 81 1013.8
20260508082439 42 61 1.0 3.0 0.00 0.00 0.00 81 1014.0
20260508081439 42 287 2.0 2.0 0.00 0.00 0.00 80 1013.8
20260508080439 43 65 1.0 2.0 0.00 0.00 0.00 80 1013.6
20260508075439 44 258 2.0 2.0 0.00 0.00 0.00 80 1013.5
20260508074439 45 76 0.0 1.0 0.00 0.00 0.00 79 1013.5
20260508073439 46 45 2.0 2.0 0.00 0.00 0.00 76 1013.6
20260508072439 46 78 1.0 1.0 0.00 0.00 0.00 73 1013.7
20260508071439 46 60 0.0 1.0 0.00 0.00 0.00 72 1013.6
20260508070439 47 72 1.0 2.0 0.00 0.00 0.00 72 1013.9
20260508065439 48 64 0.0 1.0 0.00 0.00 0.00 72 1013.9
20260508064439 48 168 0.0 1.0 0.00 0.00 0.00 74 1014.1
20260508063439 48 72 0.0 1.0 0.00 0.00 0.00 73 1013.9
20260508062439 48 53 3.0 3.0 0.00 0.00 0.00 67 1014.3
20260508061439 49 56 1.0 2.0 0.00 0.00 0.00 66 1014.2
20260508060439 49 52 3.0 3.0 0.00 0.00 0.00 62 1014.4
20260508055439 49 32 2.0 3.0 0.00 0.00 0.00 58 1014.4
20260508054439 47 177 0.0 1.0 0.00 0.00 0.00 61 1014.1
20260508053439 47 61 1.0 2.0 0.00 0.00 0.00 73 1013.9
20260508052439 47 47 2.0 2.0 0.00 0.00 0.00 71 1014.0
20260508051439 46 55 1.0 2.0 0.00 0.00 0.00 69 1014.1
20260508050439 46 50 1.0 2.0 0.00 0.00 0.00 70 1013.9
20260508045439 46 58 2.0 2.0 0.00 0.00 0.00 67 1014.1
20260508044439 47 66 1.0 2.0 0.00 0.00 0.00 65 1014.1
20260508043439 47 64 1.0 2.0 0.00 0.00 0.00 64 1014.3
20260508042439 47 66 0.0 2.0 0.00 0.00 0.00 66 1014.2
20260508041439 46 78 1.0 1.0 0.00 0.00 0.00 68 1014.3
20260508040439 46 74 1.0 1.0 0.00 0.00 0.00 70 1014.1
20260508035439 46 56 1.0 1.0 0.00 0.00 0.00 68 1014.1
20260508034439 46 67 1.0 2.0 0.00 0.00 0.00 66 1014.3
20260508033439 47 51 1.0 1.0 0.00 0.00 0.00 65 1013.9
20260508032439 47 71 2.0 2.0 0.00 0.00 0.00 69 1014.0
20260508031439 46 70 1.0 2.0 0.00 0.00 0.00 67 1014.4
20260508030439 46 51 2.0 2.0 0.00 0.00 0.00 67 1014.1
20260508025439 46 70 2.0 2.0 0.00 0.00 0.00 69 1014.2
20260508024439 46 61 2.0 2.0 0.00 0.00 0.00 66 1014.0
20260508023439 46 68 1.0 2.0 0.00 0.00 0.00 63 1014.0
20260508022440 46 56 2.0 2.0 0.00 0.00 0.00 63 1014.1
20260508021439 47 65 1.0 2.0 0.00 0.00 0.00 61 1014.0
20260508020439 48 58 1.0 2.0 0.00 0.00 0.00 60 1013.9
20260508015439 48 64 1.0 2.0 0.00 0.00 0.00 60 1013.8
20260508014439 48 73 0.0 2.0 0.00 0.00 0.00 58 1014.1
20260508013439 49 61 1.0 1.0 0.00 0.00 0.00 56 1013.9
20260508012440 50 77 1.0 2.0 0.00 0.00 0.00 54 1013.8
20260508011439 50 76 0.0 1.0 0.00 0.00 0.00 52 1013.6
20260508010439 51 67 1.0 1.0 0.00 0.00 0.00 50 1013.5
20260508005439 52 70 2.0 2.0 0.00 0.00 0.00 50 1013.4
20260508004443 53 74 0.0 1.0 0.00 0.00 0.00 47 1013.2
20260508003439 53 47 2.0 2.0 0.00 0.00 0.00 44 1013.2
20260508002439 53 113 0.0 0.0 0.00 0.00 0.00 44 1013.1
20260508001439 53 93 2.0 2.0 0.00 0.00 0.00 46 1013.2
20260508000441 54 52 0.0 1.0 0.00 0.00 0.00 42 1013.0
20260507235438 55 62 0.0 1.0 0.00 0.00 0.00 39 1012.8
20260507234439 55 95 0.0 3.0 0.00 0.00 0.00 37 1012.7
20260507233438 55 55 0.0 2.0 0.00 0.00 0.00 37 1012.6
20260507232438 55 20 3.0 4.0 0.00 0.00 0.00 38 1012.8
20260507231439 55 44 0.0 3.0 0.00 0.00 0.00 37 1012.7
20260507230438 55 35 4.0 4.0 0.00 0.00 0.00 37 1012.4
20260507225439 55 32 3.0 3.0 0.00 0.00 0.00 38 1012.8
20260507224439 56 44 2.0 2.0 0.00 0.00 0.00 36 1012.9
20260507223439 56 213 0.0 2.0 0.00 0.00 0.00 36 1012.8
20260507222439 57 14 2.0 3.0 0.00 0.00 0.00 36 1013.0
20260507221439 57 54 3.0 4.0 0.00 0.00 0.00 36 1012.6
20260507220439 57 27 5.0 5.0 0.00 0.00 0.00 34 1012.9
20260507215439 56 37 3.0 3.0 0.00 0.00 0.00 37 1012.8
20260507214438 56 278 2.0 2.0 0.00 0.00 0.00 36 1012.9
20260507213439 57 19 5.0 6.0 0.00 0.00 0.00 35 1012.8
20260507212439 57 50 4.0 5.0 0.00 0.00 0.00 35 1012.4
20260507211439 58 73 2.0 4.0 0.00 0.00 0.00 34 1012.3
20260507210439 57 61 2.0 3.0 0.00 0.00 0.00 34 1012.5
20260507205439 57 27 3.0 4.0 0.00 0.00 0.00 35 1012.3
20260507204439 57 355 4.0 4.0 0.00 0.00 0.00 36 1012.5
20260507203438 57 25 2.0 4.0 0.00 0.00 0.00 36 1012.2
20260507202439 58 7 5.0 7.0 0.00 0.00 0.00 36 1012.5
20260507201438 57 260 2.0 4.0 0.00 0.00 0.00 37 1012.3
20260507200439 57 36 4.0 6.0 0.00 0.00 0.00 37 1012.6
20260507195439 57 56 3.0 3.0 0.00 0.00 0.00 39 1012.6
20260507194439 56 197 2.0 4.0 0.00 0.00 0.00 34 1012.5
20260507193439 56 52 4.0 8.0 0.00 0.00 0.00 38 1012.9
20260507192439 55 52 3.0 3.0 0.00 0.00 0.00 40 1012.7
20260507191439 57 26 8.0 9.0 0.00 0.00 0.00 37 1012.5
20260507190439 57 43 7.0 8.0 0.00 0.00 0.00 40 1012.9
20260507185439 57 220 2.0 3.0 0.00 0.00 0.00 38 1013.0
20260507184438 57 20 4.0 4.0 0.00 0.00 0.00 39 1012.8
20260507183438 56 63 3.0 6.0 0.00 0.00 0.00 40 1012.8
20260507182438 57 40 7.0 8.0 0.00 0.00 0.00 38 1012.8
20260507181439 58 80 3.0 6.0 0.00 0.00 0.00 40 1013.0
20260507180439 57 141 2.0 4.0 0.00 0.00 0.00 41 1012.8
20260507175439 57 29 5.0 6.0 0.00 0.00 0.00 40 1013.2
20260507174439 55 36 2.0 4.0 0.00 0.00 0.00 41 1013.1
20260507173439 55 39 6.0 7.0 0.00 0.00 0.00 41 1013.5
20260507172439 55 359 2.0 8.0 0.00 0.00 0.00 42 1013.2
20260507171439 55 29 6.0 6.0 0.00 0.00 0.00 45 1013.5
20260507170439 55 79 3.0 6.0 0.00 0.00 0.00 41 1013.5
20260507165439 54 165 3.0 3.0 0.00 0.00 0.00 42 1013.7
20260507164439 54 199 1.0 8.0 0.00 0.00 0.00 41 1013.8
20260507163439 55 58 5.0 6.0 0.00 0.00 0.00 39 1014.1
20260507162439 55 23 4.0 5.0 0.00 0.00 0.00 41 1014.0
20260507161439 53 91 6.0 7.0 0.00 0.00 0.00 41 1014.1
20260507160439 53 204 3.0 4.0 0.00 0.00 0.00 43 1013.9
20260507155439 53 215 4.0 6.0 0.00 0.00 0.00 45 1013.8
20260507154439 53 223 3.0 5.0 0.00 0.00 0.00 42 1013.9
20260507153439 53 233 3.0 7.0 0.00 0.00 0.00 41 1013.8
20260507152439 51 228 3.0 4.0 0.00 0.00 0.00 44 1013.8
20260507151439 51 32 4.0 5.0 0.00 0.00 0.00 44 1013.9
20260507150439 51 154 0.0 4.0 0.00 0.00 0.00 45 1013.9